Погода в Морозовке

Россия / Омская область     54°55′32″N   73°33′42″E
темп.,
°C
ветер,
м/с
пор.,
м/с
влажн.,
%
обл.,
%
осадки,
мм/ч
давл.,
гПа
погр.,
м
15 мая, сб
сб1500:00+16юз344816 0.0 102448
03:00+14юз4105245 0.0 1023168
06:00+14зюз3105664 0.0 1023164
09:00+21зюз510407 0.0 1022391
12:00+26з683394 0.0 1021935
15:00+29з792677 0.0 10193356
18:00+29з582549 0.0 10173104
21:00+24з494094 0.0 1017262
16 мая, вс
вс1600:00+19зюз365442 0.1 1017105
03:00+17з311600 0.0 1017249
06:00+16зюз356711 0.0 101598
09:00+22з4749100 0.2 1016442
12:00+27зсз463721 0.2 10151223
15:00+29зсз683113 0.0 10142390
18:00+30зсз7122954 0.0 10123515
21:00+21ссв712656 0.0 1015714
17 мая, пн
пн1700:00+17ссз49813 0.0 1017432
03:00+14ссв379225 0.0 1018267
06:00+13св23895 0.0 1019126
09:00+18юз12595 0.0 1019409
12:00+25зюз464175 0.0 1018917
15:00+30зсз592643 0.0 10153469
18:00+30зсз69235 0.0 10143402
21:00+24з33355 0.0 101330
18 мая, вт
вт1800:00+22з47425 0.0 1013112
03:00+20зсз49475 0.0 1012224
06:00+18зсз4105897 0.0 1012210
09:00+22ссз69485 0.0 1012715
12:00+25сз693524 0.0 10121839
15:00+27сз683060 0.0 10112997
18:00+25ссз693712 0.0 10112017
21:00+20ссз38514 0.0 1011303
19 мая, ср
ср1900:00+16с367930 0.9 1012170
03:00+14с359122 0.3 1012153
06:00+13ссв4792100 0.3 1014344
09:00+13ссв6977100 0.0 1016800
12:00+14ссв686192 0.0 10181232
15:00+17ссв584116 0.0 10191763
18:00+18с683512 0.0 10192206
21:00+14св36515 0.0 1021234